,,,PA_Meas_PMT16A,,PR_Meas_QMR101_102,,RH_Meas_QMH101,,SR_Meas_QMS101,,TA_Meas_QMH101,,GenWind,,GenWind,
date,time,status,PA,status,PR,status,RH,status,SR,status,TA,status,DirAvg,status,SpdAvg,
2010-09-14, 00:00:04,VALID,1000.6,VALID,0,VALID,91.7614,VALID,0,VALID,23.3305,VALID,13,VALID,0.850781,
2010-09-14, 00:01:04,VALID,1000.62,VALID,0,VALID,91.8683,VALID,0,VALID,23.3305,VALID,13,VALID,0.866797,
2010-09-14, 00:02:04,VALID,1000.63,VALID,0,VALID,91.998,VALID,0,VALID,23.311,VALID,13,VALID,0.8,
2010-09-14, 00:03:04,VALID,1000.64,VALID,0,VALID,92.1582,VALID,0,VALID,23.2915,VALID,13,VALID,0.689062,
2010-09-14, 00:04:04,VALID,1000.63,VALID,0,VALID,92.2497,VALID,0,VALID,23.2915,VALID,13,VALID,0.594922,
2010-09-14, 00:05:04,VALID,1000.63,VALID,0,VALID,92.2726,VALID,0,VALID,23.2329,VALID,13,VALID,0.501562,
2010-09-14, 00:06:04,VALID,1000.66,VALID,0,VALID,92.2955,VALID,0,VALID,23.2329,VALID,13,VALID,0.414844,
2010-09-14, 00:07:04,VALID,1000.65,VALID,0,VALID,92.2574,VALID,0.112286,VALID,23.1921,VALID,13,VALID,0.510156,
2010-09-14, 00:08:04,VALID,1000.62,VALID,0,VALID,92.4328,VALID,0,VALID,23.1921,VALID,13,VALID,0.604688,
2010-09-14, 00:09:04,VALID,1000.62,VALID,0,VALID,92.4786,VALID,0,VALID,23.1726,VALID,13,VALID,0.563672,
2010-09-14, 00:10:04,VALID,1000.59,VALID,0,VALID,92.5549,VALID,0.112286,VALID,23.1531,VALID,18,VALID,0.614453,
2010-09-14, 00:11:04,VALID,1000.62,VALID,0,VALID,92.6083,VALID,0,VALID,23.1336,VALID,26,VALID,0.511719,
2010-09-14, 00:12:04,VALID,1000.57,VALID,0,VALID,92.6388,VALID,0.112286,VALID,23.1141,VALID,26,VALID,0.547266,
2010-09-14, 00:13:04,VALID,1000.56,VALID,0,VALID,92.6236,VALID,0.112286,VALID,23.1141,VALID,26,VALID,0.749609,
2010-09-14, 00:14:04,VALID,1000.55,VALID,0,VALID,92.6694,VALID,0,VALID,23.0946,VALID,26,VALID,0.757422,
2010-09-14, 00:15:04,VALID,1000.55,VALID,0,VALID,92.6465,VALID,0.112286,VALID,23.1141,VALID,26,VALID,0.712891,
2010-09-14, 00:16:04,VALID,1000.52,VALID,0,VALID,92.7151,VALID,0.112286,VALID,23.1336,VALID,26,VALID,0.24375,
2010-09-14, 00:17:04,VALID,1000.52,VALID,0,VALID,92.7457,VALID,0,VALID,23.1336,VALID,26,VALID,0.325781,
2010-09-14, 00:18:04,VALID,1000.5,VALID,0,VALID,92.7685,VALID,0.112286,VALID,23.1531,VALID,26,VALID,0.333594,
2010-09-14, 00:19:04,VALID,1000.51,VALID,0,VALID,92.7991,VALID,0.112286,VALID,23.1531,VALID,26,VALID,0.130859,
2010-09-14, 00:20:04,VALID,1000.53,VALID,0,VALID,92.7685,VALID,0,VALID,23.1531,VALID,26,VALID,0,
2010-09-14, 00:21:04,VALID,1000.57,VALID,0,VALID,92.8143,VALID,0,VALID,23.1921,VALID,230,VALID,1.02656,
2010-09-14, 00:22:04,VALID,1000.58,VALID,0,VALID,92.883,VALID,0,VALID,23.311,VALID,241,VALID,2.32617,
2010-09-14, 00:23:04,VALID,1000.59,VALID,0,VALID,92.9059,VALID,0,VALID,23.3695,VALID,244,VALID,1.52031,
2010-09-14, 00:24:04,VALID,1000.57,VALID,0,VALID,92.8143,VALID,0,VALID,23.4085,VALID,212,VALID,1.89648,
2010-09-14, 00:25:04,VALID,1000.54,VALID,0,VALID,92.6617,VALID,0,VALID,23.4671,VALID,217,VALID,0.960547,
2010-09-14, 00:26:04,VALID,1000.5,VALID,0,VALID,92.4176,VALID,0,VALID,23.4866,VALID,233,VALID,0.516797,
2010-09-14, 00:27:04,VALID,1000.44,VALID,0,VALID,92.1506,VALID,0,VALID,23.4866,VALID,213,VALID,0.74375,
2010-09-14, 00:28:04,VALID,1000.41,VALID,0,VALID,91.6394,VALID,0,VALID,23.5061,VALID,223,VALID,0.983203,
2010-09-14, 00:29:04,VALID,1000.39,VALID,0,VALID,91.0977,VALID,0,VALID,23.5646,VALID,227,VALID,0.802344,
2010-09-14, 00:30:04,VALID,1000.41,VALID,0,VALID,90.6399,VALID,0,VALID,23.5841,VALID,232,VALID,0.84375,
2010-09-14, 00:31:04,VALID,1000.39,VALID,0,VALID,90.5026,VALID,0,VALID,23.6232,VALID,238,VALID,0.530469,
2010-09-14, 00:32:04,VALID,1000.39,VALID,0,VALID,90.4034,VALID,0,VALID,23.6036,VALID,253,VALID,1.4418,
2010-09-14, 00:33:04,VALID,1000.39,VALID,0,VALID,90.35,VALID,0.112286,VALID,23.6427,VALID,241,VALID,0.823047,
2010-09-14, 00:34:04,VALID,1000.37,VALID,0,VALID,90.1897,VALID,0,VALID,23.6427,VALID,244,VALID,0.559375,
2010-09-14, 00:35:04,VALID,1000.39,VALID,0,VALID,90.0982,VALID,0,VALID,23.6622,VALID,267,VALID,0.696875,
2010-09-14, 00:36:04,VALID,1000.4,VALID,0,VALID,89.999,VALID,0,VALID,23.6427,VALID,287,VALID,0.912891,
2010-09-14, 00:37:04,VALID,1000.37,VALID,0,VALID,89.854,VALID,0,VALID,23.6622,VALID,253,VALID,0.548828,
2010-09-14, 00:38:04,VALID,1000.4,VALID,0,VALID,89.8311,VALID,0,VALID,23.6427,VALID,288,VALID,0.685938,
2010-09-14, 00:39:04,VALID,1000.41,VALID,0,VALID,89.9074,VALID,0,VALID,23.6427,VALID,288,VALID,0.538672,
2010-09-14, 00:40:04,VALID,1000.39,VALID,0,VALID,89.9151,VALID,0,VALID,23.6232,VALID,258,VALID,0.458984,
2010-09-14, 00:41:04,VALID,1000.4,VALID,0,VALID,89.938,VALID,0,VALID,23.6232,VALID,257,VALID,0.346094,
2010-09-14, 00:42:04,VALID,1000.37,VALID,0,VALID,89.9532,VALID,0,VALID,23.6036,VALID,257,VALID,0.170312,
2010-09-14, 00:43:04,VALID,1000.36,VALID,0,VALID,89.9151,VALID,0,VALID,23.5841,VALID,257,VALID,0.2625,
2010-09-14, 00:44:04,VALID,1000.37,VALID,0,VALID,89.9685,VALID,0,VALID,23.5646,VALID,258,VALID,0.075,
2010-09-14, 00:45:04,VALID,1000.35,VALID,0,VALID,89.8769,VALID,0,VALID,23.5256,VALID,139,VALID,0.592188,
2010-09-14, 00:46:04,VALID,1000.39,VALID,0,VALID,89.8464,VALID,0,VALID,23.5043,VALID,175,VALID,0.564453,
2010-09-14, 00:47:04,VALID,1000.38,VALID,0,VALID,89.8159,VALID,0,VALID,23.5061,VALID,172,VALID,0.187109,
2010-09-14, 00:48:04,VALID,1000.43,VALID,0,VALID,89.8464,VALID,0,VALID,23.5061,VALID,182,VALID,0.449219,
2010-09-14, 00:49:04,VALID,1000.44,VALID,0,VALID,89.9227,VALID,0,VALID,23.5256,VALID,182,VALID,0,
2010-09-14, 00:50:04,VALID,1000.41,VALID,0,VALID,89.8922,VALID,0,VALID,23.5061,VALID,182,VALID,0,
2010-09-14, 00:51:04,VALID,1000.42,VALID,0,VALID,89.8769,VALID,0,VALID,23.5061,VALID,159,VALID,0.597266,
2010-09-14, 00:52:04,VALID,1000.4,VALID,0,VALID,89.6328,VALID,0,VALID,23.5256,VALID,139,VALID,1.20352,
2010-09-14, 00:53:04,VALID,1000.4,VALID,0,VALID,89.3352,VALID,0,VALID,23.5646,VALID,132,VALID,1.05117,
2010-09-14, 00:54:04,VALID,1000.35,VALID,0,VALID,89.1292,VALID,0,VALID,23.5841,VALID,132,VALID,0.928516,
2010-09-14, 00:55:04,VALID,1000.37,VALID,0,VALID,88.969,VALID,0,VALID,23.5841,VALID,132,VALID,1.06719,
2010-09-14, 00:56:04,VALID,1000.37,VALID,0,VALID,89.0224,VALID,0,VALID,23.5238,VALID,133,VALID,1.07969,
2010-09-14, 00:57:04,VALID,1000.37,VALID,0,VALID,89.1597,VALID,0,VALID,23.5256,VALID,140,VALID,1.08008,
2010-09-14, 00:58:04,VALID,1000.37,VALID,0,VALID,89.1826,VALID,0,VALID,23.5256,VALID,148,VALID,0.964063,
2010-09-14, 00:59:04,VALID,1000.38,VALID,0,VALID,89.2589,VALID,0,VALID,23.5061,VALID,159,VALID,0.742969,
2010-09-14, 01:00:04,VALID,1000.37,VALID,0,VALID,89.3428,VALID,0,VALID,23.5061,VALID,159,VALID,0.801172,
2010-09-14, 01:01:04,VALID,1000.37,VALID,0,VALID,89.3123,VALID,0,VALID,23.4866,VALID,151,VALID,0.519141,
2010-09-14, 01:02:04,VALID,1000.35,VALID,0,VALID,89.6633,VALID,0,VALID,23.4671,VALID,142,VALID,0.491797,
2010-09-14, 01:03:04,VALID,1000.35,VALID,0,VALID,89.9609,VALID,0,VALID,23.4263,VALID,119,VALID,0.65625,
2010-09-14, 01:04:04,VALID,1000.34,VALID,0,VALID,90.0524,VALID,0,VALID,23.4067,VALID,88,VALID,0.696484,
2010-09-14, 01:05:04,VALID,1000.35,VALID,0,VALID,90.1134,VALID,0,VALID,23.3695,VALID,71,VALID,0.572656,
2010-09-14, 01:06:04,VALID,1000.35,VALID,0,VALID,90.1211,VALID,0,VALID,23.3305,VALID,71,VALID,0.610156,
2010-09-14, 01:07:04,VALID,1000.37,VALID,0,VALID,90.1592,VALID,0,VALID,23.2897,VALID,71,VALID,0.629687,
2010-09-14, 01:08:04,VALID,1000.33,VALID,0,VALID,90.0143,VALID,0,VALID,23.2524,VALID,71,VALID,0.538672,
2010-09-14, 01:09:04,VALID,1000.35,VALID,0,VALID,90.4186,VALID,0,VALID,23.1939,VALID,71,VALID,0.676953,
2010-09-14, 01:10:04,VALID,1000.36,VALID,0,VALID,90.617,VALID,0,VALID,23.1549,VALID,71,VALID,0.56875,
2010-09-14, 01:11:04,VALID,1000.35,VALID,0,VALID,90.8764,VALID,0,VALID,23.1354,VALID,71,VALID,0.582812,
2010-09-14, 01:12:04,VALID,1000.35,VALID,0,VALID,90.8459,VALID,0,VALID,23.1159,VALID,71,VALID,0.575,
2010-09-14, 01:13:04,VALID,1000.35,VALID,0,VALID,91.1282,VALID,0,VALID,23.0964,VALID,45,VALID,1.00195,
2010-09-14, 01:14:04,VALID,1000.34,VALID,0,VALID,91.5173,VALID,0,VALID,23.0964,VALID,54,VALID,1.17422,
2010-09-14, 01:15:04,VALID,1000.31,VALID,0,VALID,91.7843,VALID,0,VALID,23.1159,VALID,66,VALID,1.47109,
2010-09-14, 01:16:04,VALID,1000.35,VALID,0,VALID,91.8759,VALID,0,VALID,23.1159,VALID,78,VALID,1.54727,
2010-09-14, 01:17:04,VALID,1000.34,VALID,0,VALID,91.8759,VALID,0,VALID,23.1354,VALID,81,VALID,0.757422,
2010-09-14, 01:18:04,VALID,1000.36,VALID,0,VALID,91.8072,VALID,0,VALID,23.0964,VALID,50,VALID,0.379297,
2010-09-14, 01:19:04,VALID,1000.36,VALID,0,VALID,91.8148,VALID,0,VALID,23.0964,VALID,322,VALID,0.753906,
2010-09-14, 01:20:04,VALID,1000.33,VALID,0,VALID,91.8683,VALID,0,VALID,23.0769,VALID,319,VALID,0.255078,
2010-09-14, 01:21:04,VALID,1000.3,VALID,0,VALID,91.9827,VALID,0,VALID,23.0769,VALID,331,VALID,0,
2010-09-14, 01:22:04,VALID,1000.28,VALID,0,VALID,92.0819,VALID,0,VALID,23.0556,VALID,90,VALID,1.03555,
2010-09-14, 01:23:04,VALID,1000.25,VALID,0,VALID,92.0895,VALID,0,VALID,23.0981,VALID,104,VALID,1.31367,
2010-09-14, 01:24:04,VALID,1000.26,VALID,0,VALID,92.0209,VALID,0,VALID,23.0769,VALID,109,VALID,1.48047,
2010-09-14, 01:25:04,VALID,1000.25,VALID,0,VALID,91.9217,VALID,0,VALID,23.1159,VALID,110,VALID,1.33438,
2010-09-14, 01:26:04,VALID,1000.26,VALID,0,VALID,91.7996,VALID,0,VALID,23.1159,VALID,113,VALID,0.316797,
2010-09-14, 01:27:04,VALID,1000.25,VALID,0,VALID,91.6851,VALID,0,VALID,23.1354,VALID,313,VALID,1.37969,
2010-09-14, 01:28:04,VALID,1000.3,VALID,0,VALID,91.7462,VALID,0,VALID,23.1762,VALID,329,VALID,0.971094,
2010-09-14, 01:29:04,VALID,1000.3,VALID,0,VALID,91.7462,VALID,0,VALID,23.1549,VALID,350,VALID,0.651172,
2010-09-14, 01:30:04,VALID,1000.31,VALID,0,VALID,91.7996,VALID,0,VALID,23.1744,VALID,5,VALID,0.589453,
2010-09-14, 01:31:04,VALID,1000.26,VALID,0,VALID,91.853,VALID,0,VALID,23.1531,VALID,51,VALID,0.727344,
2010-09-14, 01:32:04,VALID,1000.29,VALID,0,VALID,91.8377,VALID,0,VALID,23.1336,VALID,15,VALID,0.0375,
2010-09-14, 01:33:04,VALID,1000.3,VALID,0,VALID,91.8606,VALID,0,VALID,23.1549,VALID,325,VALID,1.04062,
2010-09-14, 01:34:04,VALID,1000.26,VALID,0,VALID,91.8988,VALID,0,VALID,23.1336,VALID,347,VALID,1.11445,
2010-09-14, 01:35:04,VALID,1000.23,VALID,0,VALID,91.9751,VALID,0,VALID,23.1566,VALID,7,VALID,1.07969,
2010-09-14, 01:36:04,VALID,1000.22,VALID,0,VALID,92.0209,VALID,0,VALID,23.1159,VALID,12,VALID,1.20703,
2010-09-14, 01:37:04,VALID,1000.18,VALID,0,VALID,91.998,VALID,0,VALID,23.1159,VALID,12,VALID,1.21836,
2010-09-14, 01:38:04,VALID,1000.19,VALID,0,VALID,91.9522,VALID,0,VALID,23.0769,VALID,11,VALID,0.994141,
2010-09-14, 01:39:04,VALID,1000.2,VALID,0,VALID,92.0361,VALID,0,VALID,23.0573,VALID,11,VALID,0.482812,
2010-09-14, 01:40:04,VALID,1000.19,VALID,0,VALID,92.0361,VALID,0,VALID,23.0183,VALID,11,VALID,0.490625,
2010-09-14, 01:41:04,VALID,1000.19,VALID,0,VALID,92.0437,VALID,0,VALID,22.9988,VALID,11,VALID,0.236719,
2010-09-14, 01:42:04,VALID,1000.16,VALID,0,VALID,92.0437,VALID,0,VALID,22.9598,VALID,11,VALID,0.148047,
2010-09-14, 01:43:04,VALID,1000.15,VALID,0,VALID,92.0895,VALID,0,VALID,22.9403,VALID,11,VALID,0,
2010-09-14, 01:44:04,VALID,1000.15,VALID,0,VALID,92.1429,VALID,0,VALID,22.9208,VALID,39,VALID,0.0261719,
2010-09-14, 01:45:04,VALID,1000.11,VALID,0,VALID,92.2879,VALID,0,VALID,22.919,VALID,83,VALID,0.679688,
2010-09-14, 01:46:04,VALID,1000.13,VALID,0,VALID,92.2955,VALID,0,VALID,22.9403,VALID,83,VALID,1.00391,
2010-09-14, 01:47:04,VALID,1000.08,VALID,0,VALID,92.3031,VALID,0,VALID,22.9598,VALID,87,VALID,1.08086,
2010-09-14, 01:48:04,VALID,1000.1,VALID,0,VALID,92.2268,VALID,0,VALID,22.9403,VALID,98,VALID,1.04023,
2010-09-14, 01:49:04,VALID,1000.11,VALID,0,VALID,92.1277,VALID,0,VALID,22.9598,VALID,109,VALID,1.18008,
2010-09-14, 01:50:04,VALID,1000.09,VALID,0,VALID,92.0895,VALID,0,VALID,22.9403,VALID,116,VALID,1.40859,
2010-09-14, 01:51:04,VALID,1000.1,VALID,0,VALID,92.0666,VALID,0,VALID,22.9208,VALID,119,VALID,1.16523,
2010-09-14, 01:52:04,VALID,1000.09,VALID,0,VALID,92.0971,VALID,0,VALID,22.9208,VALID,118,VALID,0.919531,
2010-09-14, 01:53:04,VALID,1000.07,VALID,0,VALID,92.0895,VALID,0,VALID,22.9208,VALID,127,VALID,0.712109,
2010-09-14, 01:54:04,VALID,1000.09,VALID,0,VALID,92.1124,VALID,0,VALID,22.88,VALID,127,VALID,0.712891,
2010-09-14, 01:55:04,VALID,1000.06,VALID,0,VALID,92.1353,VALID,0,VALID,22.9013,VALID,134,VALID,0.701563,
2010-09-14, 01:56:04,VALID,1000.06,VALID,0,VALID,92.1658,VALID,0,VALID,22.8818,VALID,134,VALID,0.766016,
2010-09-14, 01:57:04,VALID,1000.02,VALID,0,VALID,92.1734,VALID,0,VALID,22.9208,VALID,151,VALID,0.805469,
2010-09-14, 01:58:04,VALID,1000.07,VALID,0,VALID,92.1582,VALID,0,VALID,22.9208,VALID,143,VALID,1.07969,
2010-09-14, 01:59:04,VALID,1000.08,VALID,0,VALID,92.0895,VALID,0,VALID,22.9208,VALID,139,VALID,0.985156,
2010-09-14, 02:00:04,VALID,1000.06,VALID,0,VALID,92.0056,VALID,0,VALID,22.9403,VALID,127,VALID,1.05039,
2010-09-14, 02:01:04,VALID,1000.09,VALID,0,VALID,91.9293,VALID,0,VALID,22.9403,VALID,124,VALID,0.900781,
2010-09-14, 02:02:04,VALID,1000.13,VALID,0,VALID,91.8988,VALID,0,VALID,22.9403,VALID,119,VALID,0.764453,
2010-09-14, 02:03:04,VALID,1000.12,VALID,0,VALID,91.8835,VALID,0,VALID,22.9403,VALID,108,VALID,0.772656,
2010-09-14, 02:04:04,VALID,1000.14,VALID,0,VALID,91.8988,VALID,0,VALID,22.9598,VALID,107,VALID,1.09531,
2010-09-14, 02:05:04,VALID,1000.15,VALID,0,VALID,91.9445,VALID,0,VALID,22.9598,VALID,97,VALID,1.1043,
2010-09-14, 02:06:04,VALID,1000.18,VALID,0,VALID,91.9674,VALID,0,VALID,22.9793,VALID,98,VALID,0.910937,
2010-09-14, 02:07:04,VALID,1000.22,VALID,0,VALID,91.9522,VALID,0,VALID,22.9793,VALID,95,VALID,0.866406,
2010-09-14, 02:08:04,VALID,1000.21,VALID,0,VALID,91.9903,VALID,0,VALID,22.9598,VALID,78,VALID,0.739062,
2010-09-14, 02:09:04,VALID,1000.22,VALID,0,VALID,92.0132,VALID,0,VALID,22.9598,VALID,78,VALID,0.722266,
2010-09-14, 02:10:04,VALID,1000.21,VALID,0,VALID,91.9598,VALID,0,VALID,22.919,VALID,40,VALID,0.819922,
2010-09-14, 02:11:04,VALID,1000.22,VALID,0,VALID,92.0285,VALID,0,VALID,22.9403,VALID,40,VALID,0.665625,
2010-09-14, 02:12:04,VALID,1000.22,VALID,0,VALID,92.0437,VALID,0,VALID,22.9403,VALID,40,VALID,0.721875,
2010-09-14, 02:13:04,VALID,1000.21,VALID,0,VALID,91.9674,VALID,0,VALID,22.9208,VALID,30,VALID,0.901563,
2010-09-14, 02:14:04,VALID,1000.22,VALID,0,VALID,91.8301,VALID,0,VALID,22.9013,VALID,29,VALID,0.860937,
2010-09-14, 02:15:04,VALID,1000.21,VALID,0,VALID,91.7385,VALID,0,VALID,22.8623,VALID,15,VALID,0.966797,
2010-09-14, 02:16:04,VALID,1000.24,VALID,0,VALID,91.708,VALID,0,VALID,22.8427,VALID,7,VALID,0.994922,
2010-09-14, 02:17:04,VALID,1000.23,VALID,0,VALID,91.7614,VALID,0,VALID,22.8427,VALID,7,VALID,0.74375,
2010-09-14, 02:18:04,VALID,1000.22,VALID,0,VALID,91.7996,VALID,0,VALID,22.8427,VALID,7,VALID,0.541797,
2010-09-14, 02:19:04,VALID,1000.23,VALID,0,VALID,91.853,VALID,0,VALID,22.8232,VALID,7,VALID,0.4,
2010-09-14, 02:20:04,VALID,1000.25,VALID,0,VALID,91.9293,VALID,0,VALID,22.8037,VALID,7,VALID,0.295703,
2010-09-14, 02:21:04,VALID,1000.22,VALID,0,VALID,91.998,VALID,0,VALID,22.8037,VALID,7,VALID,0.213281,
2010-09-14, 02:22:04,VALID,1000.21,VALID,0,VALID,92.0666,VALID,0,VALID,22.8037,VALID,7,VALID,0.0121094,
2010-09-14, 02:23:04,VALID,1000.22,VALID,0,VALID,92.1124,VALID,0,VALID,22.8037,VALID,7,VALID,0,
2010-09-14, 02:24:04,VALID,1000.22,VALID,0,VALID,92.1887,VALID,0,VALID,22.8037,VALID,7,VALID,0,
2010-09-14, 02:25:04,VALID,1000.2,VALID,0,VALID,92.2421,VALID,0,VALID,22.8037,VALID,7,VALID,0,
2010-09-14, 02:26:04,VALID,1000.23,VALID,0,VALID,92.2955,VALID,0,VALID,22.8037,VALID,7,VALID,0.392188,
2010-09-14, 02:27:04,VALID,1000.24,VALID,0,VALID,92.3413,VALID,0.112286,VALID,22.8037,VALID,7,VALID,0.471094,
2010-09-14, 02:28:04,VALID,1000.2,VALID,0,VALID,92.4176,VALID,0,VALID,22.8037,VALID,7,VALID,0.457031,
2010-09-14, 02:29:04,VALID,1000.18,VALID,0,VALID,92.4405,VALID,0,VALID,22.8232,VALID,7,VALID,0.503906,
2010-09-14, 02:30:04,VALID,1000.19,VALID,0,VALID,92.4634,VALID,0,VALID,22.8427,VALID,7,VALID,0.535547,
2010-09-14, 02:31:04,VALID,1000.21,VALID,0,VALID,92.4786,VALID,0,VALID,22.8427,VALID,7,VALID,0.644531,
2010-09-14, 02:32:04,VALID,1000.2,VALID,0,VALID,92.4939,VALID,0,VALID,22.8623,VALID,20,VALID,0.564062,
2010-09-14, 02:33:04,VALID,1000.19,VALID,0,VALID,92.4481,VALID,0,VALID,22.9013,VALID,20,VALID,0.418359,
2010-09-14, 02:34:04,VALID,1000.2,VALID,0,VALID,92.3337,VALID,0,VALID,22.8818,VALID,20,VALID,0.215625,
2010-09-14, 02:35:04,VALID,1000.21,VALID,0,VALID,92.2268,VALID,0,VALID,22.8623,VALID,20,VALID,0.053125,
2010-09-14, 02:36:04,VALID,1000.21,VALID,0,VALID,92.204,VALID,0,VALID,22.8818,VALID,20,VALID,0,
2010-09-14, 02:37:04,VALID,1000.24,VALID,0,VALID,92.1887,VALID,0,VALID,22.841,VALID,20,VALID,0,
2010-09-14, 02:38:04,VALID,1000.23,VALID,0,VALID,92.2574,VALID,0,VALID,22.8623,VALID,20,VALID,0,
2010-09-14, 02:39:04,VALID,1000.26,VALID,0,VALID,92.3337,VALID,0,VALID,22.8818,VALID,20,VALID,0.398438,
2010-09-14, 02:40:04,VALID,1000.27,VALID,0,VALID,92.3871,VALID,0,VALID,22.8818,VALID,20,VALID,0.5375,
2010-09-14, 02:41:04,VALID,1000.31,VALID,0,VALID,92.4252,VALID,0,VALID,22.9208,VALID,20,VALID,0.621484,
2010-09-14, 02:42:04,VALID,1000.31,VALID,0,VALID,92.4863,VALID,0,VALID,22.9403,VALID,20,VALID,0.633984,
2010-09-14, 02:43:04,VALID,1000.3,VALID,0,VALID,92.471,VALID,0,VALID,22.9208,VALID,71,VALID,0.664844,
2010-09-14, 02:44:04,VALID,1000.31,VALID,0,VALID,92.4557,VALID,0,VALID,22.9403,VALID,71,VALID,0.625391,
2010-09-14, 02:45:04,VALID,1000.29,VALID,0,VALID,92.471,VALID,0,VALID,22.9403,VALID,71,VALID,0.500391,
2010-09-14, 02:46:04,VALID,1000.27,VALID,0,VALID,92.4023,VALID,0,VALID,22.919,VALID,71,VALID,0.468359,
2010-09-14, 02:47:04,VALID,1000.27,VALID,0,VALID,92.3642,VALID,0,VALID,22.9403,VALID,71,VALID,0.444531,
2010-09-14, 02:48:04,VALID,1000.23,VALID,0,VALID,92.2955,VALID,0,VALID,22.9208,VALID,71,VALID,0.535547,
2010-09-14, 02:49:04,VALID,1000.2,VALID,0,VALID,92.2726,VALID,0,VALID,22.9013,VALID,71,VALID,0.504297,
2010-09-14, 02:50:04,VALID,1000.17,VALID,0,VALID,92.2192,VALID,0,VALID,22.8818,VALID,52,VALID,0.617969,
2010-09-14, 02:51:04,VALID,1000.14,VALID,0,VALID,92.1734,VALID,0,VALID,22.8623,VALID,51,VALID,0.533984,
2010-09-14, 02:52:04,VALID,1000.16,VALID,0,VALID,92.0971,VALID,0,VALID,22.8232,VALID,40,VALID,0.587891,
2010-09-14, 02:53:04,VALID,1000.15,VALID,0,VALID,92.0971,VALID,0,VALID,22.7842,VALID,40,VALID,0.388672,
2010-09-14, 02:54:04,VALID,1000.13,VALID,0,VALID,92.1353,VALID,0,VALID,22.7647,VALID,40,VALID,0.504687,
2010-09-14, 02:55:04,VALID,1000.13,VALID,0,VALID,92.1887,VALID,0,VALID,22.7452,VALID,40,VALID,0.435937,
2010-09-14, 02:56:04,VALID,1000.09,VALID,0,VALID,92.3108,VALID,0,VALID,22.7647,VALID,40,VALID,0.555469,
2010-09-14, 02:57:04,VALID,1000.1,VALID,0,VALID,92.3947,VALID,0,VALID,22.7452,VALID,40,VALID,0.374609,
2010-09-14, 02:58:04,VALID,1000.08,VALID,0,VALID,92.4252,VALID,0,VALID,22.7452,VALID,40,VALID,0,
2010-09-14, 02:59:04,VALID,1000.09,VALID,0,VALID,92.4939,VALID,0,VALID,22.7452,VALID,40,VALID,0,
2010-09-14, 03:00:04,VALID,1000.11,VALID,0,VALID,92.5244,VALID,0,VALID,22.7452,VALID,40,VALID,0,
2010-09-14, 03:01:04,VALID,1000.1,VALID,0,VALID,92.5931,VALID,0,VALID,22.7647,VALID,40,VALID,0,
2010-09-14, 03:02:04,VALID,1000.07,VALID,0,VALID,92.6617,VALID,0,VALID,22.7647,VALID,40,VALID,0,
2010-09-14, 03:03:04,VALID,1000.07,VALID,0,VALID,92.7151,VALID,0,VALID,22.7842,VALID,40,VALID,0,
2010-09-14, 03:04:04,VALID,1000.07,VALID,0,VALID,92.738,VALID,0,VALID,22.7842,VALID,40,VALID,0,
2010-09-14, 03:05:04,VALID,1000.09,VALID,0,VALID,92.7762,VALID,0,VALID,22.7842,VALID,40,VALID,0,
2010-09-14, 03:06:04,VALID,1000.08,VALID,0,VALID,92.7685,VALID,0,VALID,22.7647,VALID,40,VALID,0,
2010-09-14, 03:07:04,VALID,1000.1,VALID,0,VALID,92.7533,VALID,0,VALID,22.7842,VALID,40,VALID,0,
2010-09-14, 03:08:04,VALID,1000.11,VALID,0,VALID,92.7304,VALID,0,VALID,22.7842,VALID,40,VALID,0,
2010-09-14, 03:09:04,VALID,1000.08,VALID,0,VALID,92.7533,VALID,0,VALID,22.7647,VALID,40,VALID,0,
2010-09-14, 03:10:04,VALID,1000.08,VALID,0,VALID,92.7457,VALID,0,VALID,22.7842,VALID,40,VALID,0,
2010-09-14, 03:11:04,VALID,1000.08,VALID,0,VALID,92.7075,VALID,0,VALID,22.7647,VALID,40,VALID,0,
2010-09-14, 03:12:04,VALID,1000.06,VALID,0,VALID,92.677,VALID,0,VALID,22.724,VALID,40,VALID,0,
2010-09-14, 03:13:04,VALID,1000.07,VALID,0,VALID,92.6465,VALID,0,VALID,22.7647,VALID,40,VALID,0,
2010-09-14, 03:14:04,VALID,1000.04,VALID,0,VALID,92.5778,VALID,0,VALID,22.7452,VALID,40,VALID,0,
2010-09-14, 03:15:04,VALID,1000.05,VALID,0,VALID,92.5702,VALID,0,VALID,22.7452,VALID,40,VALID,0,
2010-09-14, 03:16:04,VALID,1000.04,VALID,0,VALID,92.471,VALID,0,VALID,22.7257,VALID,40,VALID,0,
2010-09-14, 03:17:04,VALID,1000.04,VALID,0,VALID,92.3184,VALID,0,VALID,22.6867,VALID,40,VALID,0,
2010-09-14, 03:18:04,VALID,1000.06,VALID,0,VALID,92.1963,VALID,0,VALID,22.6477,VALID,40,VALID,0,
2010-09-14, 03:19:04,VALID,1000.05,VALID,0,VALID,92.1658,VALID,0,VALID,22.6477,VALID,40,VALID,0,
2010-09-14, 03:20:04,VALID,1000.01,VALID,0,VALID,92.2803,VALID,0,VALID,22.6477,VALID,40,VALID,0,
2010-09-14, 03:21:04,VALID,1000.02,VALID,0,VALID,92.3718,VALID,0,VALID,22.6282,VALID,40,VALID,0,
2010-09-14, 03:22:04,VALID,999.97,VALID,0,VALID,92.471,VALID,0,VALID,22.6282,VALID,16,VALID,0.545313,
2010-09-14, 03:23:04,VALID,999.959,VALID,0,VALID,92.4863,VALID,0,VALID,22.6087,VALID,16,VALID,0.367578,
2010-09-14, 03:24:04,VALID,999.955,VALID,0,VALID,92.5549,VALID,0,VALID,22.6087,VALID,16,VALID,0.307422,
2010-09-14, 03:25:04,VALID,999.903,VALID,0,VALID,92.5702,VALID,0,VALID,22.5892,VALID,16,VALID,0.385547,
2010-09-14, 03:26:04,VALID,999.914,VALID,0,VALID,92.5854,VALID,0,VALID,22.5696,VALID,16,VALID,0.353906,
2010-09-14, 03:27:04,VALID,999.879,VALID,0,VALID,92.6465,VALID,0,VALID,22.5696,VALID,16,VALID,0.275781,
2010-09-14, 03:28:04,VALID,999.874,VALID,0,VALID,92.6999,VALID,0,VALID,22.5696,VALID,16,VALID,0.217187,
2010-09-14, 03:29:04,VALID,999.886,VALID,0,VALID,92.7762,VALID,0,VALID,22.5696,VALID,16,VALID,0.208594,
2010-09-14, 03:30:04,VALID,999.855,VALID,0,VALID,92.8296,VALID,0,VALID,22.5696,VALID,16,VALID,0.0820313,
2010-09-14, 03:31:04,VALID,999.882,VALID,0,VALID,92.8983,VALID,0,VALID,22.5696,VALID,16,VALID,0,
2010-09-14, 03:32:04,VALID,999.88,VALID,0,VALID,92.9669,VALID,0,VALID,22.5696,VALID,16,VALID,0,
2010-09-14, 03:33:04,VALID,999.907,VALID,0,VALID,93.0127,VALID,0,VALID,22.5696,VALID,16,VALID,0,
2010-09-14, 03:34:04,VALID,999.907,VALID,0,VALID,93.0432,VALID,0,VALID,22.5696,VALID,16,VALID,0,
2010-09-14, 03:35:04,VALID,999.891,VALID,0,VALID,93.0966,VALID,0,VALID,22.5892,VALID,16,VALID,0.0335938,
2010-09-14, 03:36:04,VALID,999.867,VALID,0,VALID,93.1424,VALID,0,VALID,22.6299,VALID,67,VALID,0.220703,
2010-09-14, 03:37:04,VALID,999.85,VALID,0,VALID,93.1805,VALID,0,VALID,22.5892,VALID,67,VALID,0.257422,
2010-09-14, 03:38:04,VALID,999.86,VALID,0,VALID,93.1805,VALID,0,VALID,22.6087,VALID,87,VALID,0.70625,
2010-09-14, 03:39:04,VALID,999.834,VALID,0,VALID,93.2416,VALID,0,VALID,22.6282,VALID,94,VALID,1.10234,
2010-09-14, 03:40:04,VALID,999.844,VALID,0,VALID,93.2645,VALID,0,VALID,22.6477,VALID,109,VALID,0.822656,
2010-09-14, 03:41:04,VALID,999.83,VALID,0,VALID,93.2797,VALID,0,VALID,22.6867,VALID,114,VALID,0.994141,
2010-09-14, 03:42:04,VALID,999.861,VALID,0,VALID,93.3103,VALID,0,VALID,22.7062,VALID,114,VALID,0.7375,
2010-09-14, 03:43:04,VALID,999.867,VALID,0,VALID,93.3103,VALID,0,VALID,22.7062,VALID,114,VALID,0.433984,
2010-09-14, 03:44:04,VALID,999.899,VALID,0,VALID,93.2874,VALID,0,VALID,22.7045,VALID,114,VALID,0.269922,
2010-09-14, 03:45:04,VALID,999.904,VALID,0,VALID,93.2721,VALID,0,VALID,22.7257,VALID,114,VALID,0.128906,
2010-09-14, 03:46:04,VALID,999.924,VALID,0,VALID,93.2797,VALID,0,VALID,22.7257,VALID,114,VALID,0,
2010-09-14, 03:47:04,VALID,999.926,VALID,0,VALID,93.2492,VALID,0,VALID,22.7062,VALID,114,VALID,0.0789063,
2010-09-14, 03:48:04,VALID,999.914,VALID,0,VALID,93.2492,VALID,0,VALID,22.7062,VALID,114,VALID,0.384766,